KB0BDN-13 Weather Reports


time (UTC)temp
F
wind
direction
speed
knots
gust
knots
rain 1hr
in
rain 24hr
in
rain mn
in
humidity
%
barometer
mb
20260906203133 80 126 0.0 0.0 0.00 0.00 0.00 60 1011.5
20260906202911 80 126 0.0 2.6 0.00 0.00 0.00 61 1011.5
20260906201633 81 126 0.0 2.6 0.00 0.00 0.00 59 1011.5
20260906201412 81 126 0.9 2.6 0.00 0.00 0.00 59 1011.2
20260906200133 82 126 0.0 0.9 0.00 0.00 0.00 57 1011.2
20260906195913 82 126 3.5 4.3 0.00 0.00 0.00 58 1011.3
20260906194638 83 126 1.7 4.3 0.00 0.00 0.00 57 1011.3
20260906194412 83 126 4.3 4.3 0.00 0.00 0.00 58 1011.5
20260906193138 83 126 0.9 0.9 0.00 0.00 0.00 58 1011.5
20260906191638 83 126 0.0 2.6 0.00 0.00 0.00 57 1011.7
20260906190138 82 126 0.0 0.0 0.00 0.00 0.00 56 1011.9
20260906185912 82 126 0.0 2.6 0.00 0.00 0.00 56 1012.2
20260906184638 82 126 0.9 2.6 0.00 0.00 0.00 57 1012.2
20260906184411 82 126 1.7 2.6 0.00 0.00 0.00 57 1012.3
20260906183138 82 126 0.0 0.9 0.00 0.00 0.00 58 1012.3
20260906181638 81 126 0.0 1.7 0.00 0.00 0.00 59 1012.4
20260906180138 80 126 0.0 0.0 0.00 0.00 0.00 61 1012.4
20260906175911 80 126 0.9 3.5 0.00 0.00 0.00 61 1012.7
20260906174638 80 126 0.0 3.5 0.00 0.00 0.00 61 1012.7
20260906174413 80 126 0.0 3.5 0.00 0.00 0.00 61 1012.9
20260906173138 80 126 0.0 0.0 0.00 0.00 0.00 63 1012.9
20260906172911 80 126 0.9 3.5 0.00 0.00 0.00 62 1013.1
20260906171637 79 126 0.0 2.6 0.00 0.00 0.00 64 1013.1
20260906170137 79 126 0.9 2.6 0.00 0.00 0.00 64 1013.4
20260906165911 79 126 0.0 1.7 0.00 0.00 0.00 64 1013.5
20260906164637 78 126 0.0 1.7 0.00 0.00 0.00 66 1013.5
20260906164410 78 126 0.0 1.7 0.00 0.00 0.00 65 1013.6
20260906163137 78 126 0.0 0.0 0.00 0.00 0.00 65 1013.6
20260906162908 78 126 0.0 1.7 0.00 0.00 0.00 65 1013.5
20260906161637 77 126 0.0 1.7 0.00 0.00 0.00 67 1013.5
20260906161411 77 126 1.7 1.7 0.00 0.00 0.00 66 1013.4
20260906160137 76 126 0.0 0.0 0.00 0.00 0.00 66 1013.4
20260906155909 77 126 0.0 2.6 0.00 0.00 0.00 66 1013.3
20260906154637 76 126 0.0 2.6 0.00 0.00 0.00 68 1013.3
20260906154409 76 126 0.0 2.6 0.00 0.00 0.00 67 1013.2
20260906153137 74 126 0.0 0.0 0.00 0.00 0.00 71 1013.2
20260906152911 74 126 0.0 2.6 0.00 0.00 0.00 69 1013.3
20260906151637 74 126 0.0 1.7 0.00 0.00 0.00 70 1013.3
20260906151410 74 126 1.7 1.7 0.00 0.00 0.00 70 1013.4
20260906150137 72 126 0.0 0.0 0.00 0.00 0.00 75 1013.4
20260906145910 72 126 0.0 2.6 0.00 0.00 0.00 73 1013.6
20260906144637 71 126 0.0 2.6 0.00 0.00 0.00 74 1013.6
20260906144411 70 126 0.9 2.6 0.00 0.00 0.00 75 1013.7
20260906143137 69 126 0.0 0.0 0.00 0.00 0.00 77 1013.7
20260906142909 69 126 0.9 2.6 0.00 0.00 0.00 78 1013.7
20260906141637 67 126 0.0 2.6 0.00 0.00 0.00 81 1013.7
20260906141411 66 126 0.0 2.6 0.00 0.00 0.00 82 1013.8
20260906140137 64 126 0.0 0.0 0.00 0.00 0.00 88 1013.8
20260906135910 64 126 0.0 2.6 0.00 0.00 0.00 90 1013.8
20260906134637 61 126 0.0 2.6 0.00 0.00 0.00 96 1013.8
20260906133136 59 126 0.0 0.0 0.00 0.00 0.00 99 1013.7
20260906132909 59 126 0.0 2.6 0.00 0.00 0.00 99 1013.8
20260906131636 57 126 0.0 2.6 0.00 0.00 0.00 99 1013.8
20260906130136 56 126 0.0 0.0 0.00 0.00 0.00 99 1013.9
20260906125909 56 126 0.0 0.9 0.00 0.00 0.00 99 1013.8
20260906124636 54 126 0.0 0.9 0.00 0.00 0.00 99 1013.8
20260906124410 53 126 0.0 0.9 0.00 0.00 0.00 99 1013.6
20260906123136 52 126 0.0 0.0 0.00 0.00 0.00 99 1013.6
20260906122909 52 126 0.0 0.0 0.00 0.00 0.00 99 1013.5
20260906121636 52 126 0.0 0.0 0.00 0.00 0.00 99 1013.5
20260906121409 51 126 0.0 0.0 0.00 0.00 0.00 98 1013.4
20260906120136 51 126 0.0 0.0 0.00 0.00 0.00 98 1013.4
20260906114636 51 126 0.0 0.0 0.00 0.00 0.00 98 1013.4
20260906114409 51 126 0.0 0.0 0.00 0.00 0.00 98 1013.3
20260906113136 51 126 0.0 0.0 0.00 0.00 0.00 98 1013.3
20260906112908 51 126 0.0 0.0 0.00 0.00 0.00 98 1013.1
20260906111636 51 126 0.0 0.0 0.00 0.00 0.00 98 1013.1
20260906111409 51 126 0.0 0.0 0.00 0.00 0.00 98 1012.9
20260906110136 51 126 0.0 0.0 0.00 0.00 0.00 98 1012.9
20260906105911 52 126 0.0 0.0 0.00 0.00 0.00 98 1012.9
20260906104636 52 126 0.0 0.0 0.00 0.00 0.00 98 1012.9
20260906104413 52 126 0.0 0.0 0.00 0.00 0.00 98 1012.8
20260906103135 53 126 0.0 0.0 0.00 0.00 0.00 98 1012.8
20260906102913 53 126 0.0 0.0 0.00 0.00 0.00 98 1012.5
20260906101635 52 126 0.0 0.0 0.00 0.00 0.00 98 1012.5
20260906101413 52 126 0.0 0.0 0.00 0.00 0.00 98 1012.5
20260906100135 52 126 0.0 0.0 0.00 0.00 0.00 98 1012.5
20260906095913 52 126 0.0 0.0 0.00 0.00 0.00 98 1012.4
20260906094635 52 126 0.0 0.0 0.00 0.00 0.00 98 1012.4
20260906094413 52 126 0.0 0.0 0.00 0.00 0.00 98 1012.5
20260906093134 52 126 0.0 0.0 0.00 0.00 0.00 98 1012.5
20260906092913 52 126 0.0 0.0 0.00 0.00 0.00 98 1012.7
20260906091634 52 126 0.0 0.0 0.00 0.00 0.00 98 1012.7
20260906091413 52 126 0.0 0.0 0.00 0.00 0.00 98 1012.8
20260906090134 53 126 0.0 0.0 0.00 0.00 0.00 98 1012.8
20260906084634 53 126 0.0 0.0 0.00 0.00 0.00 98 1012.8
20260906083134 53 126 0.0 0.0 0.00 0.00 0.00 98 1012.7
20260906082912 53 126 0.0 0.0 0.00 0.00 0.00 98 1012.8
20260906081637 54 126 0.0 0.0 0.00 0.00 0.00 98 1012.8
20260906081410 54 126 0.0 0.0 0.00 0.00 0.00 98 1012.8
20260906080137 53 126 0.0 0.0 0.00 0.00 0.00 98 1012.8
20260906075910 53 126 0.0 0.0 0.00 0.00 0.00 98 1012.8
20260906074637 53 126 0.0 0.0 0.00 0.00 0.00 97 1012.8
20260906073137 53 126 0.0 0.0 0.00 0.00 0.00 97 1012.9
20260906072909 53 126 0.0 0.0 0.00 0.00 0.00 97 1012.7
20260906071637 53 126 0.0 0.0 0.00 0.00 0.00 97 1012.7
20260906071410 53 126 0.0 0.0 0.00 0.00 0.00 97 1012.9
20260906070137 53 126 0.0 0.0 0.00 0.00 0.00 97 1012.9
20260906065910 53 126 0.0 0.0 0.00 0.00 0.00 97 1013.2
20260906064637 54 126 0.0 0.0 0.00 0.00 0.00 97 1013.2
20260906063137 54 126 0.0 0.0 0.00 0.00 0.00 97 1013.3
20260906062910 54 126 0.0 0.0 0.00 0.00 0.00 97 1013.3
20260906061637 54 126 0.0 0.0 0.00 0.00 0.00 97 1013.3
20260906061410 54 126 0.0 0.0 0.00 0.00 0.00 97 1013.3
20260906060136 54 126 0.0 0.0 0.00 0.00 0.00 97 1013.3
20260906055910 54 126 0.0 2.6 0.00 0.00 0.00 97 1012.8
20260906054636 54 126 0.0 1.7 0.00 0.00 0.00 96 1012.8
20260906054408 53 126 0.0 1.7 0.00 0.00 0.00 96 1013.1
20260906053136 54 126 0.0 0.0 0.00 0.00 0.00 96 1013.1
20260906052910 54 126 0.0 0.0 0.00 0.00 0.00 96 1012.8
20260906051636 54 126 0.0 0.0 0.00 0.00 0.00 96 1012.8
20260906050136 54 126 0.0 0.0 0.00 0.00 0.00 95 1012.8
20260906045909 54 126 0.0 0.0 0.00 0.00 0.00 95 1012.7
20260906044636 54 126 0.0 0.0 0.00 0.00 0.00 95 1012.7
20260906044408 54 126 0.0 0.0 0.00 0.00 0.00 95 1012.6
20260906043135 55 126 0.0 0.0 0.00 0.00 0.00 94 1012.6
20260906042912 55 126 0.0 0.0 0.00 0.00 0.00 94 1012.8
20260906041633 56 126 0.0 0.0 0.00 0.00 0.00 94 1012.8
20260906041411 56 126 0.0 0.0 0.00 0.00 0.00 94 1012.6
20260906040137 56 126 0.0 0.0 0.00 0.00 0.00 92 1012.6
20260906035910 56 126 0.0 0.0 0.00 0.00 0.00 92 1012.6
20260906034637 57 126 0.0 0.0 0.00 0.00 0.00 91 1012.6
20260906034410 57 126 0.0 0.0 0.00 0.00 0.00 91 1012.6
20260906033137 58 126 0.0 0.0 0.00 0.00 0.00 90 1012.6
20260906032910 58 126 0.0 0.0 0.00 0.00 0.00 90 1012.5
20260906031637 59 126 0.0 0.0 0.00 0.00 0.00 88 1012.5
20260906031409 59 126 0.0 0.0 0.00 0.00 0.00 88 1012.4
20260906030221 61 126 0.0 2.6 0.00 0.00 0.00 86 1012.3
20260906030137 61 126 0.0 0.0 0.00 0.00 0.00 86 1012.4
20260906025910 61 126 0.0 2.6 0.00 0.00 0.00 86 1012.3
20260906024637 62 126 0.0 2.6 0.00 0.00 0.00 84 1012.3
20260906024410 62 126 0.0 2.6 0.00 0.00 0.00 84 1011.8
20260906023137 63 126 0.0 2.6 0.00 0.00 0.00 83 1011.8
20260906022910 63 126 0.0 2.6 0.00 0.00 0.00 83 1012.0
20260906021637 63 126 0.0 2.6 0.00 0.00 0.00 83 1012.0
20260906020137 63 126 0.0 0.0 0.00 0.00 0.00 85 1011.9
20260906015910 63 126 0.0 1.7 0.00 0.00 0.00 85 1011.8
20260906014637 63 126 0.0 1.7 0.00 0.00 0.00 86 1011.8
20260906014410 63 126 0.0 1.7 0.00 0.00 0.00 85 1011.4
20260906013136 63 126 0.0 0.0 0.00 0.00 0.00 87 1011.4
20260906012910 63 126 0.0 0.9 0.00 0.00 0.00 86 1011.4
20260906011636 63 126 0.0 0.0 0.00 0.00 0.00 87 1011.4
20260906010136 63 126 0.0 0.0 0.00 0.00 0.00 87 1011.4
20260906005910 63 126 0.0 0.9 0.00 0.00 0.00 87 1011.3
20260906004636 63 126 0.0 0.9 0.00 0.00 0.00 88 1011.3
20260906004450 63 126 0.0 0.9 0.00 0.00 0.00 88 1011.1
20260906004409 63 126 0.0 0.9 0.00 0.00 0.00 88 1011.1
20260906003136 64 126 0.0 0.0 0.00 0.00 0.00 86 1011.1
20260906001636 65 126 0.0 0.0 0.00 0.00 0.00 85 1011.0
20260906000136 66 126 0.0 0.0 0.00 0.00 0.00 82 1010.9
20260905234636 68 126 0.0 0.0 0.00 0.00 0.00 81 1010.9
20260905234414 68 126 0.0 0.0 0.00 0.00 0.00 82 1010.9
20260905233136 69 126 0.0 0.0 0.00 0.00 0.00 82 1010.9
20260905231636 69 126 0.0 0.0 0.00 0.00 0.00 81 1011.0
20260905231414 69 126 0.0 0.0 0.00 0.00 0.00 82 1011.3
20260905230135 70 126 0.0 0.0 0.00 0.00 0.00 80 1011.3
20260905225914 70 126 0.9 0.9 0.00 0.00 0.00 81 1011.3
20260905224635 70 126 0.0 0.0 0.00 0.00 0.00 82 1011.3
20260905223135 70 126 0.0 0.0 0.00 0.00 0.00 79 1011.4
20260905221635 71 126 0.0 0.0 0.00 0.00 0.00 77 1011.4
20260905221414 71 126 0.0 0.0 0.00 0.00 0.00 77 1011.5
20260905220135 73 126 0.0 0.0 0.00 0.00 0.00 73 1011.5
20260905214635 74 126 0.0 0.0 0.00 0.00 0.00 72 1011.6
20260905214414 74 126 0.0 0.0 0.00 0.00 0.00 71 1011.8
20260905213134 74 126 0.0 0.0 0.00 0.00 0.00 70 1011.8
20260905211634 74 126 0.0 0.0 0.00 0.00 0.00 70 1011.8
20260905211413 74 126 0.0 0.0 0.00 0.00 0.00 72 1011.9
20260905210134 73 126 0.0 0.0 0.00 0.00 0.00 69 1011.9
20260905205912 73 126 0.0 0.9 0.00 0.00 0.00 68 1011.9
20260905204634 75 126 0.0 0.9 0.00 0.00 0.00 73 1011.9
20260905204414 75 126 0.0 0.9 0.00 0.00 0.00 70 1012.1